Regional Weather Roundup
Issued by NWS

Home | Current Version | Previous Version | Text Only | Print | Product List | Glossary Off
Versions: 1 2 3 4 5 6 7 8 9 10 11 12 13 14 15 16 17 18 19 20 21 22 23 24 25 26 27 28 29 30 31 32 33 34 35 36 37 38 39 40 41 42 43 44 45 46 47 48 49 50

000
ASUS45 KPSR 011310
RWRAZ

ARIZONA REGIONAL HOURLY WEATHER ROUNDUP
NATIONAL WEATHER SERVICE PHOENIX AZ
600 AM MST SUN FEB 01 2015

NOTE: FAIR INDICATES FEW OR NO CLOUDS BELOW 12,000 FEET WITH NO
SIGNIFICANT WEATHER AND/OR OBSTRUCTIONS TO VISIBILITY.

AZZ001>003-036-011400-
NORTHWEST ARIZONA

CITY           SKY/WX    TMP DP  RH WIND       PRES   REMARKS
BULLHEAD CITY  CLEAR     57  36  44 N22       30.07R
KINGMAN        CLEAR     38  35  89 E7        30.11R WCI  33
$$

AZZ004>008-015-016-018-011400-
NORTH CENTRAL ARIZONA

CITY           SKY/WX    TMP DP  RH WIND       PRES   REMARKS
GRAND CANYON   CLEAR     20  17  88 CALM      30.14R
PRESCOTT       CLEAR     32  29  88 SW3       30.09R
FLAGSTAFF      CLEAR     29  26  89 CALM      30.10R
PAYSON         CLEAR     41  32  70 NE13      30.08R
$$

AZZ009>014-017-011400-
NORTHEAST ARIZONA

CITY           SKY/WX    TMP DP  RH WIND       PRES   REMARKS
WINSLOW        CLEAR     31  29  92 W5        30.12R WCI  26
SAINT JOHNS    CLEAR     32  31  96 W5        30.08R WCI  27
WINDOW ROCK    CLEAR     23  18  81 CALM      30.08R
SHOW LOW       CLOUDY    32  30  93 NE8       30.11S WCI  25
$$

AZZ023-011400-
GREATER PHOENIX AREA

CITY           SKY/WX    TMP DP  RH WIND       PRES   REMARKS
PHOENIX        FOG       51  51 100 NW3       30.01R VSB 1/4
BUCKEYE          N/A     46  46 100 N5        30.03R
LUKE AFB       CLEAR     47  46  98 N5        30.01R FOG
DEER VALLEY    CLOUDY    50  49  96 CALM      30.01R FOG
SCOTTSDALE     CLOUDY    51  49  92 CALM      30.02R
MESA-FALCON    CLOUDY    46  46 100 N6        30.01
MESA-GATEWAY   FOG       48  48 100 CALM      30.04R VSB 1/4
CHANDLER         N/A     48  48 100 CALM      30.03
$$

AZZ027-028-011400-
SOUTHWEST MARICOPA COUNTY AND PINAL COUNTY

CITY           SKY/WX    TMP DP  RH WIND       PRES   REMARKS
CASA GRANDE    CLOUDY    46  43  87 CALM      30.02R VSB<1/4
GILA BEND      FAIR      46  47 100 S2        30.01R
$$

AZZ503-504-507>509-011400-
SOUTHEAST ARIZONA

CITY           SKY/WX    TMP DP  RH WIND       PRES   REMARKS
TUCSON         FOG       50  48  93 CALM      30.04R VSB 1/4
DAVIS-MONTHAN  CLOUDY    48  48 100 W2        30.02R
RYAN FIELD     FOG       50  50 100 CALM      30.04  VSB 1/4
NOGALES        CLEAR     37  35  92 CALM      30.02R
SIERRA VISTA   CLEAR     40  38  93 CALM      30.03R
DOUGLAS        PTCLDY    37  36  96 N6        30.03R WCI  32
SAFFORD        CLOUDY    47  46  97 N3        30.02R FOG
$$

AZZ020-021-025-026-031-011400-
SOUTHWEST ARIZONA

CITY           SKY/WX    TMP DP  RH WIND       PRES   REMARKS
YUMA           CLEAR     54  49  83 NE5       30.01R
$$

CAZ031-033-041-043-047-048-061-011400-
SOUTHERN CALIFORNIA

CITY           SKY/WX    TMP DP  RH WIND       PRES   REMARKS
DOWNTOWN L.A.  CLEAR     51  47  86 CALM      30.02S
L.A. AIRPORT   CLEAR     52  50  93 CALM      30.03R
SAN DIEGO      CLEAR     55  49  80 CALM      30.06R
BURBANK        CLEAR     48  41  76 N3        30.03R
ONTARIO        CLEAR     51  44  77 N8        30.04R
RIVERSIDE      CLEAR     49  42  77 CALM      30.05R
PALM SPRINGS   CLEAR     58  40  51 NW8       30.03R
EL CENTRO NAS  CLEAR     49  41  74 W8        30.01R
IMPERIAL       CLEAR     50  42  74 W6        30.00R
BLYTHE         CLEAR     50  47  89 CALM      30.03R
NEEDLES        CLEAR     54  36  50 N10       30.06R
$$

NVZ020-UTZ003-011400-
SOUTHERN NEVADA-UTAH

CITY           SKY/WX    TMP DP  RH WIND       PRES   REMARKS
LAS VEGAS      CLEAR     45  37  73 SW9       30.10R
SALT LAKE CITY PTCLDY    29  24  82 SE5       30.20R WCI  24
$$

NMZ009-TXZ055-011400-
NEW MEXICO-WEST TEXAS

CITY           SKY/WX    TMP DP  RH WIND       PRES   REMARKS
ALBUQUERQUE    PTCLDY    34  30  85 NW3       30.05R
EL PASO        CLOUDY    43  41  93 S9        29.98R
$$


........................KEY........................
SKY/WX - SKY CONDITION/WEATHER
TMP    - TEMPERATURE IN FAHRENHEIT
DP     - DEW POINT IN FAHRENHEIT
RH     - RELATIVE HUMIDITY IN PERCENT
WIND   - DIRECTION AND SPEED IN MILES PER HOUR (MPH)
VRB    - VARIABLE WIND DIRECTION
PRES   - MEAN SEA LEVEL PRESSURE IN INCHES OF MERCURY
         F - FALLING PRESSURE   R - RISING PRESSURE
         S - STEADY PRESSURE
VSB    - VISIBILITY IN MILES
HX     - HEAT INDEX IN FAHRENHEIT
WCI    - WIND CHILL INDEX IN FAHRENHEIT
TC     - TEMPERATURE IN CELSIUS WHICH IS ALSO KNOWN AS
         TEMPERATURE IN CENTIGRADE
AFB    - AIR FORCE BASE
         LUKE AFB IS LUKE AIR FORCE BASE
         DAVIS-MONTHAN IS DAVIS-MONTHAN AIR FORCE BASE
NAS    - NAVAL AIR STATION
         EL CENTRO NAS IS EL CENTRO NAVAL AIR STATION
N/A    - NOT AVAILABLE


USA.gov is the U.S. government's official web portal to all federal, state and local government web resources and services.